Погода в Матвеевке

Россия / Курганская область     54°34′10″N   63°40′10″E
темп.,
°C
ветер,
м/с
пор.,
м/с
влажн.,
%
обл.,
%
осадки,
мм/ч
давл.,
гПа
погр.,
м
27 января, чт
чт2723:00−14ю4992100 0.0 1027131
02:00−15ю5128499 0.0 1026186
05:00−14ююз51291100 0.0 1026202
08:00−12ююз41195100 0.0 1026213
11:00−9ююз51194100 0.0 1026277
14:00−6ююз51093100 0.0 1026357
17:00−6юз41093100 0.0 1026319
20:00−11ююз349860 0.0 102738
28 января, пт
пт2823:00−16зюз22100100 0.0 102713
02:00−16юз22100100 0.0 102713
05:00−16з1199100 0.0 10279
08:00−16ююв1199100 0.0 102710
11:00−13ююв2299100 0.0 102652
14:00−9юв1295100 0.0 102591
17:00−9в229897 0.1 102519
20:00−13в2299100 0.0 102529
29 января, сб
сб2923:00−13в3498100 0.0 102454
02:00−16в2495100 0.0 102447
05:00−17в2496100 0.0 102339
08:00−15в3690100 0.0 102386
11:00−13в3786100 0.0 1022157
14:00−10в3785100 0.0 1020193
17:00−11в3689100 0.0 1019115
20:00−14в2393100 0.0 101951
30 января, вс
вс3023:00−14вюв2395100 0.0 101740
02:00−16ю1197100 0.0 101611
05:00−18юз3398100 0.0 101636
08:00−20зюз3510041 0.0 101658
11:00−17юз38945 0.0 1016144
14:00−13юз49915 0.0 1016230
17:00−13ююз37965 0.0 1016102
20:00−12ю4109760 0.0 1017158
31 января, пн
пн3123:00−8ю5149696 0.0 1016277
02:00−3ююз7149192 0.0 1016600
05:00−3ююз7139082 0.0 1017603
08:00−6ююз6139375 0.0 1018344
11:00−7ююз6139356 0.0 1020356
14:00−6ююз51292100 0.0 1020391
17:00−5ююз61293100 0.0 1021405
20:00−6ююз5129470 0.0 1022329